This demonstration page uses our WeatherBlox Daily Observations layout. Learn more.

36.17497, -115.13722

Hourly Observations for February 22, 2015

Temp ( °F °C ) Dew Point ( °F °C ) Humidity (%) Winds ( mph kmh ) Pressure ( in mb ) Visibility ( mi km ) Precip ( " mm )
12:53 am 00:53 Clear 57 13.9 19 -7.2 23 23 Calm 29.72 1007 10 16.0934 0 0
1:53 am 01:53 Mostly Cloudy 58 14.4 14 -10 18 18 E 13 20 29.73 1007 10 16.0934 0 0
2:53 am 02:53 Partly Cloudy 57 13.9 16 -8.9 20 20 NE 5 7 29.74 1007 10 16.0934 0 0
3:53 am 03:53 Mostly Cloudy 58 14.4 18 -7.8 21 21 E 12 19 29.74 1007 10 16.0934 0 0
4:53 am 04:53 Partly Cloudy 58 14.4 22 -5.6 25 25 VRB 5 7 29.77 1008 10 16.0934 0 0
5:53 am 05:53 Mostly Cloudy 56 13.3 26 -3.3 32 32 N 7 11 29.79 1009 10 16.0934 0 0
6:53 am 06:53 Partly Cloudy 55 12.8 27 -2.8 34 34 Calm 29.82 1010 10 16.0934 0 0
7:53 am 07:53 Cloudy 54 12.2 30 -1.1 40 40 VRB 5 7 29.86 1011 10 16.0934 0 0
8:53 am 08:53 Cloudy 54 12.2 31 -0.6 42 42 E 13 20 29.88 1012 10 16.0934 0 0
9:53 am 09:53 Cloudy 55 12.8 31 -0.6 40 40 VRB 5 7 29.88 1012 10 16.0934 0 0
10:53 am 10:53 Cloudy 55 12.8 31 -0.6 40 40 N 7 11 29.89 1012 10 16.0934 0 0
11:53 am 11:53 undefined 56 13.3 30 -1.1 37 37 E 12 19 29.88 1012 N/A 0 0
12:53 pm 12:53 Cloudy 56 13.3 32 0 40 40 VRB 7 11 29.87 1012 10 16.0934 0 0
1:53 pm 13:53 Cloudy 54 12.2 33 0.6 45 45 NNW 14 22 29.87 1012 10 16.0934 0 0
2:53 pm 14:53 Cloudy 53 11.7 34 1.1 48 48 N 10 17 29.89 1012 10 16.0934 0 0
3:53 pm 15:53 Cloudy 52 11.1 35 1.7 53 53 NNW 12 19 29.89 1012 10 16.0934 0 0
4:53 pm 16:53 Cloudy 51 10.6 35 1.7 54 54 N 10 17 29.89 1012 10 16.0934 0 0
5:53 pm 17:53 Cloudy 51 10.6 35 1.7 54 54 N 6 9 29.9 1013 10 16.0934 0 0
6:53 pm 18:53 Cloudy 51 10.6 33 0.6 50 50 VRB 6 9 29.91 1013 10 16.0934 0 0
7:53 pm 19:53 Cloudy with Light Rain 48 8.9 36 2.2 63 63 E 15 24 29.93 1014 9 14.48406 0.02 0.508
8:53 pm 20:53 Cloudy with Light Rain 47 8.3 35 1.7 63 63 E 9 15 29.93 1014 10 16.0934 0 0.0254
9:53 pm 21:53 Cloudy with Light Rain 46 7.8 35 1.7 66 66 E 12 19 29.94 1014 10 16.0934 0.01 0.254
10:53 pm 22:53 Cloudy with Light Rain 44 6.7 35 1.7 71 71 E 15 24 29.94 1014 10 16.0934 0.02 0.508
11:53 pm 23:53 Cloudy with Light Rain 42 5.6 35 1.7 76 76 SE 7 11 29.94 1014 10 16.0934 0.02 0.508

Powered by AerisWeather